コホウテク彗星

75D/Kohoutek (2007)

English version
Home page
Updated on August 10, 2008

---------------------------------------------------------------------

・ プロフィール

・ 軌道要素

Perturbed ephemeris below is based on elements from MPC 31663. 

 Epoch = 2454400.50000 TT   T = 2454408.75183 TT
 Peri. =  175.62701         a =     3.5528843 AU
 Node  =  269.68312 J2000.0 e =     0.4946376
 Incl. =    5.90138         q =     1.7954940 AU

・ 光度変化

        m1 = 18 + 5 logΔ + 5 log r

---------------------------------------------------------------------

軌道要素はMinor Planet & Comet Ephemeris Serviceで計算したものです。
光度グラフはComet for Windowsで作成したものです。

---------------------------------------------------------------------

Copyright(C) Seiichi Yoshida (comet@aerith.net). All rights reserved.